Wind_Speed
40 44 52 56 64 63 61 57 55 54 48 44 44 35 30 28 26 25 29 35 43 55 62 65 70 80 81 74 75 66 62 55 55 54 40 37 32 38 54 53 58 60 68 67
35 47 55 57 65 70 66 66 64 63 53 45 43 41 33 27 22 19 23 31 39 51 64 67 67 76 80 78 79 77 69 63 64 65 56 54 54 49 58 56 53 55 55 64
32 45 52 61 69 70 67 68 74 63 57 49 44 43 37 29 22 15 16 24 33 45 58 67 68 76 86 90 86 83 81 77 64 68 64 64 59 59 62 54 53 51 55 56
32 41 55 61 67 74 78 77 80 75 63 57 51 49 46 36 26 18 11 18 28 41 54 64 68 79 89 95 89 83 80 87 76 76 69 66 59 62 61 54 52 49 51 57
33 39 52 58 69 74 80 82 84 83 72 58 55 52 48 41 32 23 13 13 24 35 50 61 69 80 84 97 95 89 83 89 86 82 74 64 62 53 60 53 52 56 53 54
34 40 50 56 63 72 75 88 90 93 79 65 59 54 49 42 32 28 17 10 19 29 43 56 70 82 87 89 98 96 90 88 89 86 78 65 61 63 61 57 55 58 65 53
32 38 45 54 63 70 77 84 89 91 88 73 62 58 51 45 36 27 22 10 16 25 35 48 63 81 87 88 94 93 96 91 92 90 83 72 68 67 67 60 61 55 52 51
28 41 43 51 60 68 75 84 90 92 95 78 67 61 55 48 41 31 24 15 10 22 30 40 50 69 89 89 89 95 87 91 94 93 90 86 79 76 72 68 67 64 59 62
33 42 42 48 56 64 73 81 86 89 91 90 76 65 58 51 45 40 25 19 11 15 26 35 45 60 75 91 94 93 92 89 92 87 94 96 93 91 87 83 79 78 69 65
37 35 41 44 54 61 71 77 84 87 89 93 83 71 62 54 48 43 36 22 16 11 19 30 40 51 66 77 95 99 96 94 94 89 83 86 94 95 91 92 89 84 77 76
31 35 35 45 52 60 65 73 81 86 87 89 90 77 65 58 51 45 41 32 20 14 14 22 32 42 53 66 76 90 99 95 97 97 93 90 88 89 89 90 95 93 89 85
30 26 37 43 49 57 63 70 75 82 82 87 89 86 73 62 56 49 43 38 28 16 11 15 23 33 41 50 59 68 79 93 97 100 101 104 103 103 99 95 93 95 98 93
26 30 37 42 49 57 64 67 74 80 80 81 88 85 78 66 58 51 45 42 37 26 16 9 13 22 30 39 47 54 60 66 74 82 92 101 103 106 106 105 103 99 100 100
29 30 38 43 48 52 60 63 70 76 76 79 83 84 83 70 62 53 47 42 40 32 22 15 11 12 19 28 34 41 47 53 56 60 67 74 80 85 90 96 98 103 107 105
34 37 38 41 47 50 57 63 62 72 77 78 80 81 80 76 66 58 50 42 39 34 24 19 16 13 13 16 23 31 39 44 48 53 55 57 62 69 76 79 81 87 95 97
39 42 39 43 47 48 54 59 60 67 72 74 78 77 76 77 71 62 52 44 38 37 28 21 18 17 16 16 19 21 24 33 41 44 47 52 56 58 61 67 75 81 85 87
40 40 36 44 46 48 49 54 59 61 70 74 73 78 71 72 70 64 58 47 40 37 35 27 21 19 19 18 19 22 25 25 27 30 35 40 44 50 54 56 59 63 69 74
37 37 36 38 45 47 45 51 58 59 69 74 69 73 71 68 68 67 58 54 42 38 38 34 30 25 20 18 20 21 20 24 28 29 29 31 33 34 34 35 39 44 50 54
41 39 34 34 39 42 48 52 56 58 63 72 71 70 69 67 65 63 61 52 49 41 36 33 32 32 28 22 17 14 14 17 21 25 29 32 30 29 27 24 26 32 35 36
44 38 40 39 43 49 49 50 52 56 61 67 67 72 67 72 65 60 59 54 48 44 40 38 38 36 33 31 27 20 11 7 10 12 15 18 21 21 23 24 25 26 25 22
47 44 46 41 43 46 46 44 52 56 59 63 63 69 69 71 71 62 52 52 48 45 42 41 40 38 37 34 32 29 23 17 14 10 7 8 9 13 16 17 17 19 21 18
54 50 53 50 48 44 45 45 51 55 60 64 67 68 70 73 71 64 55 48 47 44 39 38 39 38 37 35 32 28 26 23 20 16 11 7 6 5 6 8 9 10 11 13
52 51 54 54 52 49 49 50 49 54 58 64 68 70 71 74 76 67 55 50 44 41 38 36 34 37 37 36 32 29 26 25 24 21 19 17 16 15 14 14 14 14 14 12
53 52 52 54 55 51 50 51 50 54 58 65 68 72 70 77 80 72 55 45 43 38 36 34 33 30 31 33 32 31 29 27 25 23 22 20 19 18 17 16 16 16 16 15
60 55 58 61 56 55 57 58 50 55 58 66 69 70 69 80 80 72 57 47 37 31 33 30 32 32 29 26 29 29 28 26 24 23 22 21 21 20 19 17 17 17 17 16
69 63 63 69 64 58 60 59 58 61 65 65 71 73 76 79 76 73 64 54 43 33 33 32 30 31 31 28 25 24 25 24 24 23 22 20 19 18 17 18 17 17 17 17
Wind_Direction
8 16 16 12 11 10 7 8 3 9 1 357 348 343 334 320 303 280 256 239 229 219 211 209 206 205 194 190 193 203 200 201 205 216 212 214 226 229 241 244 244 243 244 243
3 18 16 12 14 15 12 15 12 9 5 4 357 350 342 331 318 292 257 235 225 219 210 207 207 205 198 191 194 201 200 197 205 208 214 216 213 217 246 244 242 240 244 243
3 15 18 17 14 17 16 21 18 11 8 4 7 360 355 345 340 317 264 231 221 217 210 206 204 206 198 196 195 198 203 204 204 206 210 214 218 226 232 247 248 243 241 241
358 10 17 15 16 16 21 20 21 19 13 9 11 8 2 355 350 344 294 227 217 216 210 206 202 204 199 196 195 198 205 205 203 204 208 210 219 226 237 234 242 237 242 249
343 5 17 20 18 14 21 19 22 19 16 12 11 13 8 2 353 352 330 242 219 215 211 206 201 202 202 200 199 201 204 205 203 208 212 210 220 227 231 235 237 239 247 250
353 8 17 16 15 15 22 18 20 20 21 16 12 13 11 11 360 352 345 276 225 216 212 208 203 202 200 204 204 204 205 207 209 208 214 217 218 225 231 232 238 241 243 252
347 4 9 11 13 16 19 23 19 20 19 18 16 12 11 14 11 358 349 316 242 221 215 214 210 204 205 205 209 210 209 212 212 215 213 216 216 223 225 231 238 240 244 246
355 355 358 5 13 17 16 23 16 19 21 18 18 13 10 11 17 8 358 336 268 232 222 219 218 214 209 210 212 216 218 219 217 218 219 220 220 227 233 233 239 249 251 259
341 341 360 4 10 15 17 19 20 18 18 18 16 15 12 8 10 16 6 356 311 243 226 223 220 218 217 215 216 218 220 225 223 226 225 225 229 234 233 235 237 241 244 246
324 345 355 356 7 10 16 17 18 16 16 16 15 14 13 9 8 10 13 6 348 285 238 224 223 222 221 222 219 219 221 225 228 227 230 232 233 235 239 239 242 242 245 244
317 334 347 357 5 6 10 14 15 14 14 15 14 13 13 11 8 7 10 10 5 338 276 239 226 225 225 225 226 227 226 228 228 232 235 237 238 240 241 241 243 244 246 248
322 335 349 352 1 3 10 13 10 14 12 13 14 14 11 11 8 5 6 8 5 357 325 267 241 233 229 229 230 231 231 233 235 236 235 236 238 241 242 243 245 245 247 246
323 340 351 352 358 2 4 8 9 7 10 9 11 11 10 9 8 5 4 3 2 354 344 321 264 244 236 233 232 233 234 235 236 237 239 241 242 241 242 245 246 245 245 247
317 331 332 333 348 357 359 3 6 6 6 4 7 8 9 6 5 5 2 1 358 352 342 330 312 264 242 237 238 237 236 236 237 239 240 241 241 243 245 245 246 245 244 247
313 311 316 325 341 354 351 354 359 2 3 1 3 4 5 6 2 4 2 1 2 358 349 336 327 309 274 251 236 236 238 238 239 239 238 239 241 243 245 246 247 246 247 249
308 309 317 321 328 342 348 350 354 357 360 1 359 0 0 3 3 359 4 3 7 11 6 355 336 321 306 277 254 248 243 241 242 241 240 240 241 243 245 247 248 250 251 252
306 310 310 316 321 329 347 348 352 352 356 357 357 357 357 357 358 359 358 4 7 12 16 14 2 339 319 301 284 264 256 254 247 243 243 246 246 247 247 249 250 251 253 255
320 312 309 315 318 327 345 345 348 348 349 353 355 354 354 354 354 355 355 358 5 13 19 23 20 11 354 330 307 290 273 261 258 257 256 256 252 252 254 258 260 259 258 260
301 310 319 320 322 328 335 335 340 343 345 347 351 355 352 353 350 349 352 353 356 4 16 19 21 19 16 3 340 317 292 274 270 262 258 255 258 258 264 267 269 269 274 275
299 307 316 311 313 318 325 331 343 344 344 344 347 352 350 351 348 347 345 349 350 355 4 13 17 19 19 18 11 6 354 340 313 277 259 255 256 258 262 266 268 276 285 299
292 298 303 311 311 313 319 334 339 340 339 339 341 345 348 347 348 345 342 343 346 348 356 4 10 15 16 19 24 24 25 18 7 359 315 284 272 270 275 278 281 290 304 317
288 293 297 300 304 311 318 327 331 335 335 336 337 340 341 346 346 343 339 336 340 344 349 355 1 5 11 15 17 25 29 35 41 43 38 32 15 353 331 332 334 330 325 329
289 290 291 293 301 303 309 311 322 330 329 331 335 332 335 340 346 340 333 331 332 336 340 347 353 358 1 6 11 13 18 27 30 36 41 43 44 41 39 34 33 33 30 26
283 283 291 293 294 303 303 310 317 322 324 329 331 331 329 336 338 339 330 324 325 328 329 336 341 347 352 355 359 4 5 6 12 13 17 23 26 23 23 25 23 23 26 26
276 280 287 291 292 295 301 305 317 322 323 322 323 329 327 330 334 334 327 318 316 323 326 328 328 332 336 342 346 350 355 358 359 0 1 2 2 2 2 3 2 3 5 6
271 279 284 287 292 294 295 305 315 316 316 319 321 320 322 325 329 330 326 317 307 305 311 317 326 318 320 322 328 333 334 339 343 349 353 351 349 348 345 344 345 349 352 354
Height
10710 10700 10688 10678 10664 10647 10628 10614 10599 10583 10569 10556 10543 10535 10528 10521 10516 10513 10513 10515 10520 10529 10541 10551 10560 10572 10586 10592 10603 10613 10620 10631 10639 10648 10656 10657 10664 10660 10660 10667 10674 10680 10686 10692
10708 10695 10685 10673 10661 10641 10626 10609 10593 10580 10566 10554 10542 10528 10521 10513 10507 10503 10503 10506 10510 10517 10530 10540 10552 10559 10574 10581 10589 10599 10608 10617 10626 10635 10643 10647 10653 10653 10649 10657 10662 10668 10673 10679
10702 10692 10681 10667 10656 10639 10624 10608 10594 10578 10564 10551 10539 10527 10516 10507 10500 10496 10496 10499 10504 10511 10519 10530 10542 10552 10559 10564 10574 10583 10593 10606 10616 10624 10629 10634 10639 10642 10642 10646 10650 10656 10661 10665
10696 10687 10677 10664 10653 10640 10622 10606 10591 10575 10562 10550 10537 10524 10513 10503 10496 10493 10492 10493 10498 10504 10511 10521 10532 10541 10550 10558 10565 10574 10582 10593 10603 10611 10617 10622 10628 10632 10633 10636 10640 10645 10652 10656
10691 10683 10672 10661 10649 10638 10618 10604 10587 10575 10562 10548 10536 10525 10515 10503 10495 10491 10489 10491 10494 10499 10505 10512 10523 10532 10542 10552 10558 10564 10569 10582 10589 10599 10606 10612 10617 10621 10624 10626 10631 10636 10642 10646
10687 10678 10668 10658 10646 10635 10611 10602 10585 10572 10560 10548 10537 10527 10518 10508 10498 10491 10488 10489 10492 10496 10501 10507 10515 10524 10533 10543 10550 10553 10560 10570 10581 10587 10596 10601 10607 10611 10616 10620 10623 10626 10632 10636
10683 10674 10663 10653 10641 10629 10616 10603 10589 10577 10564 10551 10538 10527 10519 10510 10500 10493 10488 10488 10489 10493 10498 10504 10511 10519 10526 10534 10541 10546 10554 10562 10569 10576 10584 10590 10596 10601 10606 10612 10616 10617 10620 10625
10678 10669 10661 10650 10639 10628 10615 10598 10591 10574 10561 10551 10539 10530 10520 10511 10503 10495 10489 10486 10487 10490 10495 10500 10508 10516 10524 10529 10533 10540 10547 10554 10562 10568 10575 10579 10586 10592 10596 10601 10605 10608 10611 10612
10673 10667 10657 10647 10636 10627 10613 10601 10590 10577 10563 10553 10541 10531 10520 10513 10504 10497 10491 10486 10484 10486 10490 10495 10500 10506 10512 10519 10526 10530 10537 10543 10551 10557 10564 10570 10574 10578 10584 10589 10593 10598 10601 10604
10669 10662 10654 10644 10632 10623 10611 10598 10588 10578 10565 10553 10542 10532 10524 10515 10506 10499 10492 10487 10483 10482 10484 10488 10493 10499 10503 10509 10515 10522 10528 10532 10539 10545 10551 10557 10563 10568 10571 10574 10578 10584 10588 10591
10664 10658 10650 10640 10629 10618 10608 10596 10587 10578 10566 10556 10546 10535 10525 10517 10508 10500 10493 10488 10483 10480 10480 10481 10485 10490 10496 10501 10506 10512 10518 10524 10530 10534 10539 10544 10549 10553 10558 10562 10565 10569 10573 10577
10658 10652 10645 10635 10625 10615 10604 10594 10586 10579 10568 10556 10547 10538 10526 10518 10510 10502 10494 10488 10483 10480 10477 10476 10477 10481 10485 10490 10495 10500 10505 10511 10517 10523 10527 10532 10536 10541 10544 10547 10551 10553 10558 10560
10653 10647 10639 10630 10621 10612 10601 10591 10582 10575 10565 10557 10547 10537 10527 10519 10513 10504 10495 10487 10482 10477 10474 10472 10472 10473 10475 10478 10482 10486 10490 10495 10500 10506 10511 10516 10521 10525 10529 10532 10535 10538 10540 10541
10647 10643 10635 10627 10618 10610 10601 10592 10582 10574 10565 10556 10547 10538 10530 10520 10513 10506 10497 10489 10480 10474 10470 10467 10466 10467 10467 10468 10471 10473 10476 10480 10485 10488 10492 10497 10501 10505 10509 10512 10515 10519 10521 10523
10641 10638 10632 10623 10615 10606 10597 10590 10580 10573 10565 10557 10548 10539 10530 10522 10513 10507 10499 10489 10480 10471 10467 10463 10461 10461 10462 10462 10463 10464 10466 10468 10470 10474 10477 10481 10485 10488 10491 10493 10497 10499 10503 10504
10635 10631 10627 10620 10612 10604 10595 10587 10579 10571 10565 10557 10547 10540 10530 10522 10515 10507 10500 10491 10482 10473 10466 10461 10458 10456 10456 10456 10455 10455 10457 10458 10459 10461 10464 10467 10470 10473 10475 10476 10478 10481 10483 10483
10629 10625 10620 10614 10607 10599 10591 10586 10577 10568 10563 10555 10547 10539 10530 10521 10514 10508 10500 10494 10485 10475 10466 10461 10457 10454 10451 10449 10448 10449 10449 10450 10452 10453 10455 10457 10459 10460 10462 10464 10465 10466 10466 10466
10623 10619 10614 10608 10602 10595 10586 10581 10573 10565 10559 10553 10546 10538 10529 10521 10514 10507 10500 10494 10488 10479 10471 10464 10460 10455 10451 10447 10444 10442 10442 10443 10445 10447 10449 10450 10450 10451 10452 10454 10453 10452 10450 10449
10617 10612 10607 10601 10595 10590 10583 10577 10571 10563 10557 10550 10546 10538 10529 10521 10515 10507 10500 10494 10489 10483 10475 10469 10463 10457 10452 10446 10441 10437 10435 10435 10436 10437 10437 10438 10440 10442 10444 10444 10443 10441 10439 10438
10607 10604 10600 10596 10589 10584 10578 10572 10566 10559 10554 10547 10541 10537 10529 10521 10514 10508 10500 10495 10489 10484 10478 10470 10464 10458 10454 10447 10440 10436 10432 10431 10431 10429 10429 10430 10432 10434 10436 10436 10436 10435 10432 10427
10598 10595 10591 10588 10581 10576 10571 10569 10562 10555 10550 10544 10538 10532 10528 10520 10513 10506 10501 10494 10488 10483 10477 10473 10467 10462 10456 10450 10445 10440 10436 10433 10430 10428 10428 10428 10429 10430 10430 10430 10430 10428 10425 10422
10587 10585 10581 10578 10571 10570 10565 10562 10556 10550 10544 10541 10536 10530 10523 10520 10512 10504 10499 10495 10489 10484 10478 10473 10469 10465 10460 10456 10450 10446 10442 10439 10436 10434 10431 10429 10428 10428 10428 10427 10425 10423 10420 10418
10575 10572 10569 10564 10557 10560 10558 10553 10550 10543 10539 10535 10533 10526 10521 10516 10512 10505 10497 10492 10489 10484 10479 10475 10471 10465 10461 10459 10455 10451 10447 10443 10440 10438 10435 10433 10431 10430 10428 10427 10425 10423 10420 10417
10564 10561 10556 10550 10546 10549 10547 10545 10543 10537 10533 10528 10525 10522 10516 10511 10508 10503 10496 10489 10485 10482 10478 10475 10471 10468 10463 10459 10456 10453 10450 10447 10442 10439 10437 10436 10434 10432 10430 10428 10426 10425 10422 10420
10553 10546 10538 10533 10535 10538 10535 10534 10532 10529 10526 10521 10516 10515 10510 10505 10501 10497 10492 10487 10481 10478 10476 10472 10469 10466 10464 10461 10457 10453 10451 10448 10445 10442 10439 10436 10434 10432 10430 10428 10426 10424 10421 10419
10535 10531 10526 10515 10517 10524 10523 10522 10523 10520 10516 10513 10508 10503 10500 10497 10494 10489 10482 10481 10476 10472 10470 10468 10466 10463 10461 10459 10456 10453 10450 10447 10445 10442 10440 10438 10436 10434 10431 10429 10426 10423 10421 10419